Weather in Campbell River

Canada     50°01′35″N   125°14′32″W
temp.,
°C
wind,
m/s
gust,
m/s
humid.,
%
clouds,
%
prec.,
mm/h
press.,
hPa
HPBL,
m
20 may, fri
fri2023:00+5wnw36843 0.0 1025145
02:00+4wnw35894 0.0 1026113
05:00+3wnw24920 0.0 102692
08:00+8nw23720 0.0 1026378
11:00+13ene22540 0.0 1025867
14:00+15ese22491 0.0 1023961
17:00+16ese324920 0.2 1022690
20:00+13ene11710 0.3 102113
21 may, sat
sat2123:00+8wnw22820 0.3 102224
02:00+7wnw23875 0.0 102353
05:00+6wnw22900 0.0 102355
08:00+10nnw22710 0.0 1024255
11:00+16ene11430 0.0 1023759
14:00+18e22320 0.0 10221279
17:00+19se21308 0.0 10211009
20:00+16w22565 0.0 102118
22 may, sun
sun2223:00+10w22730 0.0 102227
02:00+8wnw22770 0.0 102335
05:00+7wnw227531 0.0 102333
08:00+12n1159100 0.0 1024211
11:00+15ese2148100 0.0 1023454
14:00+16e3344100 0.0 1022531
17:00+16e2246100 0.0 1020389
20:00+13e117189 0.0 102021
23 may, mon
mon2323:00+11wnw1173100 0.0 102120
02:00+10wnw2377100 0.0 102158
05:00+9nw237895 0.0 102161
08:00+12nw246771 0.0 1021317
11:00+17n234788 0.0 10191311
14:00+19ne234329 0.0 10191696
17:00+18nw344359 0.1 10181482
20:00+13wnw485714 0.0 1018478
24 may, tue
tue2423:00+7wnw388164 0.0 1019215
02:00+6wnw3787100 0.0 1020169
05:00+6wnw2590100 0.0 1019122
08:00+9nw1273100 0.0 1019269
11:00+10e2369100 0.0 1018476
14:00+10e2479100 0.3 1018481
17:00+11ese3791100 1.8 1016534
20:00+9se3596100 2.8 1016317